Flag for Brazil Weather past 2 weeks in Curitiba, Paraná, Brazil

Now
68 °F

Partly sunny.


Feels Like: 68 °F
Forecast: 55 / 68 °F
Wind: 9 mph from East

Location: Curitiba Aeroporto

Current Time: Apr 26, 2015 at 4:32:59 PM

Latest Report: Apr 26, 2015 at 3:00 PM


Visibility: N/A

Pressure: 30.18 "Hg

Humidity: 64%

Dew point: 55 °F

Location of CuritibaLocation

Historic Weather in Curitiba — Graph

°F

Curitiba temperature yesterday

Maximum temperature yesterday: 70 °F (at 1:00 PM)
Minimum temperature yesterday: 54 °F (at 11:00 PM)
Average temperature yesterday: 60 °F

Past Weeks' High & Low Weather Summary

 TemperatureHumidityPressure
High82 °F (Apr 20, 2:00 PM)100% (Apr 12, 4:00 AM)30.27 "Hg (Apr 12, 4:00 AM)
Low54 °F (Apr 25, 11:00 PM)34% (Apr 11, 3:00 PM)29.92 "Hg (Apr 20, 3:00 PM)
Average65 °F84%30.12 "Hg
* Reported Apr 11 3:00 PM — Apr 26 3:00 PM, Curitiba, Weather by CustomWeather, © 2015

Note: Actual official high and low records may vary slightly from our data, if they occured in-between our weather recording intervals... More about our weather records

Advertising

Curitiba weather history for previous 24 hours

 ConditionsComfort  
Time TempWeatherWind HumidityBarometerVisibility
3:00 PM
Sun, Apr 26
68 °FPartly sunny.9 mph64%30.18 "HgN/A
2:00 PM68 °FScattered clouds.7 mph69%30.21 "HgN/A
1:00 PM66 °FBroken clouds.8 mph73%30.21 "HgN/A
12:00 PM64 °FBroken clouds.3 mph78%30.24 "HgN/A
11:00 AM64 °FBroken clouds.5 mph73%30.27 "HgN/A
10:00 AM63 °FBroken clouds.3 mph77%30.27 "HgN/A
9:00 AM61 °FPartly sunny.6 mph83%30.27 "HgN/A
8:00 AM59 °FScattered clouds.7 mph88%30.24 "HgN/A
7:00 AM55 °FBroken clouds.3 mph100%30.24 "HgN/A
6:00 AM54 °FScattered clouds.5 mph100%30.21 "HgN/A
5:00 AM55 °FPassing clouds.3 mph94%30.21 "HgN/A
4:00 AM57 °FPassing clouds.5 mph94%30.21 "Hg5 mi
3:00 AM57 °FPartly cloudy.5 mph94%30.21 "Hg4 mi
2:00 AM55 °FPassing clouds.3 mph94%30.21 "HgN/A
1:00 AM55 °FPassing clouds.3 mph94%30.24 "HgN/A
12:00 AM55 °FPartly cloudy.6 mph94%30.24 "HgN/A
11:00 PM
Sat, Apr 25
54 °FPassing clouds.2 mph94%30.24 "HgN/A
10:00 PM55 °FPassing clouds.5 mph88%30.24 "HgN/A
9:00 PM55 °FClear.10 mph94%30.24 "Hg10 mi
8:00 PM57 °FPassing clouds.9 mph88%30.24 "HgN/A
7:00 PM57 °FPassing clouds.9 mph88%30.21 "HgN/A
6:00 PM59 °FPassing clouds.13 mph88%30.21 "HgN/A
5:00 PM63 °FPassing clouds.12 mph77%30.21 "HgN/A
4:00 PM66 °FPartly sunny.12 mph68%30.18 "HgN/A
Weather by CustomWeather, © 2015

See weather overviewHow to use our weather pages